Change the Weather History Date:

Monday, March 17, 2014

  Actual Average Record
Temperature  
Mean Temperature 43 °F 46 °F  
Max Temperature 50 °F 56 °F 75 °F (1947)
Min Temperature 36 °F 37 °F 25 °F (1955)
Degree Days  
Heating Degree Days 22 19  
Month to date heating degree days 293 339  
Since 1 July heating degree days 3989 3866  
Cooling Degree Days 0 0  
Month to date cooling degree days 0 0  
Year to date cooling degree days 0 0  
Moisture  
Dew Point 34 °F    
Average Humidity 71    
Maximum Humidity 89    
Minimum Humidity 53    
Precipitation  
Precipitation 0.02 in 0.13 in 1.05 in (1938)
Month to date precipitation 3.71 1.97  
Year to date precipitation 11.18 12.44  
Snow  
Snow 0.00 in - - ()
Month to date snowfall 0.0  
Since 1 July snowfall 0.0  
Snow Depth 0.00 in    
Sea Level Pressure  
Sea Level Pressure 30.32 in    
Wind  
Wind Speed 8 mph (West)    
Max Wind Speed 26 mph    
Max Gust Speed 37 mph    
Visibility 10 miles    
Events Rain    
T = Trace of Precipitation, MM = Missing Value Source: NWS Daily Summary

Daily Weather History Graph

Daily Weather History Graph

Search for Another Location

Airport or City:

Trip Planner

Search our weather history database for the weather conditions in past years. The results will help you decide how hot, cold, wet, or windy it might be!

Date:

Astronomy

Mar. 17, 2014 Rise Set
Actual Time 7:20 AM PDT 7:20 PM PDT
Civil Twilight 6:50 AM PDT 7:50 PM PDT
Nautical Twilight 6:16 AM PDT 8:24 PM PDT
Astronomical Twilight 5:41 AM PDT 9:00 PM PDT
Moon 8:48 PM PDT (3/17) 7:35 AM PDT (3/17)
Length of Visible Light 12h 59m
Length of Day
12h 00m
Full, 99% of the Moon is Illuminated
Mar 17
Full
Mar 23
Last Quarter
Mar 30
New
Apr 7
First Quarter
Apr 15
Full

Hourly Weather History & Observations

Time (PDT) Temp. Windchill Dew Point Humidity Pressure Visibility Wind Dir Wind Speed Gust Speed Precip Events Conditions
12:53 AM 39.9 °F 37.8 °F 36.0 °F 86% 30.11 in 10.0 mi WSW 3.5 mph - N/A   Mostly Cloudy
1:53 AM 41.0 °F 34.3 °F 36.0 °F 82% 30.14 in 10.0 mi West 11.5 mph - N/A   Scattered Clouds
2:53 AM 39.9 °F 35.8 °F 36.0 °F 86% 30.17 in 10.0 mi West 5.8 mph - N/A   Clear
3:53 AM 39.9 °F 33.4 °F 35.1 °F 83% 30.19 in 10.0 mi West 10.4 mph - N/A   Clear
4:53 AM 39.0 °F 32.8 °F 34.0 °F 82% 30.21 in 10.0 mi WSW 9.2 mph - N/A   Clear
5:53 AM 37.0 °F 34.5 °F 34.0 °F 89% 30.27 in 10.0 mi ESE 3.5 mph - N/A   Mostly Cloudy
6:53 AM 36.0 °F - 32.0 °F 86% 30.29 in 10.0 mi Calm Calm - N/A   Partly Cloudy
7:53 AM 39.0 °F 35.7 °F 33.1 °F 79% 30.32 in 10.0 mi SW 4.6 mph - N/A   Partly Cloudy
8:53 AM 42.1 °F 37.7 °F 33.1 °F 70% 30.34 in 10.0 mi WSW 6.9 mph - N/A   Mostly Cloudy
9:53 AM 44.1 °F 42.5 °F 34.0 °F 68% 30.35 in 10.0 mi WSW 3.5 mph - N/A   Mostly Cloudy
10:13 AM 44.1 °F - 33.1 °F 65% 30.35 in 10.0 mi Calm Calm - 0.00 in   Overcast
10:53 AM 45.0 °F 40.6 °F 36.0 °F 71% 30.37 in 8.0 mi West 8.1 mph - 0.00 in   Overcast
11:53 AM 45.0 °F 39.3 °F 35.1 °F 68% 30.38 in 8.0 mi West 11.5 mph 17.3 mph 0.00 in Rain Light Rain
12:53 PM 48.9 °F - 35.1 °F 59% 30.37 in 10.0 mi West 17.3 mph - 0.02 in   Mostly Cloudy
1:09 PM 45.0 °F 39.7 °F 37.9 °F 76% 30.37 in 10.0 mi NNW 10.4 mph - N/A   Overcast
1:53 PM 48.9 °F - 36.0 °F 61% 30.36 in 10.0 mi WNW 19.6 mph - N/A   Partly Cloudy
2:53 PM 48.9 °F - 37.0 °F 64% 30.35 in 10.0 mi West 15.0 mph - N/A   Scattered Clouds
3:53 PM 46.0 °F 38.5 °F 34.0 °F 63% 30.37 in 10.0 mi WNW 19.6 mph - 0.00 in   Partly Cloudy
4:53 PM 48.9 °F - 34.0 °F 56% 30.36 in 10.0 mi WNW 12.7 mph - N/A   Scattered Clouds
5:53 PM 46.9 °F - 32.0 °F 56% 30.37 in 10.0 mi WNW 11.5 mph - N/A   Overcast
6:53 PM 46.0 °F 39.6 °F 30.9 °F 56% 30.37 in 10.0 mi WNW 15.0 mph - N/A   Overcast
7:53 PM 44.1 °F 38.6 °F 32.0 °F 63% 30.38 in 10.0 mi WNW 10.4 mph - N/A   Overcast
8:53 PM 42.1 °F - 33.1 °F 70% 30.39 in 10.0 mi Calm Calm - N/A   Scattered Clouds
9:53 PM 43.0 °F - 36.0 °F 76% 30.40 in 10.0 mi Calm Calm - N/A   Overcast
10:53 PM 43.0 °F 41.3 °F 36.0 °F 76% 30.40 in 10.0 mi South 3.5 mph - N/A   Overcast
11:53 PM 43.0 °F - 34.0 °F 71% 30.39 in 10.0 mi Calm Calm - N/A   Overcast